Home > Weather > St. Peter Port > Past weeks

Flag for Guernsey Past Weather in St. Peter Port, Guernsey — Yesterday and Last 2 Weeks

Now
54 °F

Scattered showers. Passing clouds.


Feels Like: 49 °F
Forecast: 53 / 61 °F
Wind: 15 mph from East

Location: Guernsey Airport

Current Time: May 26, 2016 at 11:33:43 PM

Latest Report: May 26, 2016 at 8:50 PM


Visibility: N/A

Pressure: 29.92 "Hg

Humidity: 94%

Dew Point: 52 °F

Location of St. Peter PortLocation

Past Weather in St. Peter Port — Graph

°F

St. Peter Port Temperature Yesterday

Maximum temperature yesterday: 55 °F (at 12:50 PM)
Minimum temperature yesterday: 48 °F (at 3:50 AM)
Average temperature yesterday: 52 °F

High & Low Weather Summary for the Past Weeks

 TemperatureHumidityPressure
High64 °F (May 26, 1:50 PM)100% (May 11, 8:50 PM)30.27 "Hg (May 11, 8:50 PM)
Low43 °F (May 15, 5:20 AM)58% (May 14, 5:20 PM)29.56 "Hg (May 12, 3:50 AM)
Average54 °F86%29.96 "Hg
* Reported May 11 8:20 PM — May 26 8:50 PM, St. Peter Port, Weather by CustomWeather, © 2016

Note: Actual official high and low records may vary slightly from our data, if they occured in-between our weather recording intervals... More about our weather records

Advertising

St. Peter Port Weather History for the Previous 24 Hours

Scroll right to see more
 ConditionsComfort  
Time TempWeatherWind HumidityBarometerVisibility
8:50 PM
Thu, May 26
54 °FScattered showers. Passing clouds.15 mph94%29.92 "HgN/A
8:20 PM55 °FSprinkles. Passing clouds.17 mph94%29.92 "HgN/A
7:50 PM55 °FSprinkles. Passing clouds.9 mph100%29.95 "HgN/A
7:20 PM55 °FRain showers. Passing clouds.10 mph100%29.95 "Hg5 mi
6:50 PM55 °FRain showers. Partly sunny.17 mph94%29.95 "Hg3 mi
6:20 PM55 °FSprinkles. Partly sunny.15 mph94%29.95 "Hg4 mi
5:50 PM57 °FSprinkles. Passing clouds.7 mph88%29.92 "HgN/A
5:20 PM57 °FSprinkles. Passing clouds.8 mph88%29.92 "HgN/A
4:50 PM57 °FSprinkles. Passing clouds.10 mph82%29.92 "HgN/A
4:20 PM59 °FSunny.9 mph77%29.92 "Hg10 mi
3:50 PM61 °FSunny.9 mph77%29.92 "Hg10 mi
3:20 PM64 °FSunny.10 mph73%29.92 "Hg10 mi
2:50 PM63 °FSunny.9 mph73%29.92 "Hg10 mi
2:20 PM64 °FSunny.9 mph68%29.92 "Hg10 mi
1:50 PM64 °FPassing clouds.9 mph68%29.95 "HgN/A
1:20 PM63 °FSunny.10 mph68%29.95 "Hg10 mi
12:50 PM63 °FSunny.10 mph73%29.95 "Hg10 mi
12:20 PM63 °FSunny.9 mph73%29.95 "Hg10 mi
11:50 AM61 °FSunny.10 mph77%29.95 "Hg10 mi
11:20 AM61 °FSunny.10 mph77%29.95 "Hg10 mi
10:50 AM59 °FPassing clouds.10 mph82%29.95 "HgN/A
10:20 AM59 °FPassing clouds.10 mph82%29.95 "HgN/A
9:50 AM57 °FPassing clouds.10 mph82%29.95 "HgN/A
9:20 AM57 °FPassing clouds.12 mph82%29.95 "HgN/A
8:50 AM55 °FPassing clouds.14 mph88%29.95 "HgN/A
8:20 AM55 °FPassing clouds.12 mph88%29.95 "HgN/A
7:50 AM54 °FPassing clouds.10 mph88%29.95 "HgN/A
7:20 AM54 °FScattered clouds.10 mph88%29.95 "HgN/A
6:50 AM54 °FScattered clouds.8 mph88%29.95 "HgN/A
6:20 AM52 °FScattered clouds.8 mph94%29.95 "HgN/A
5:50 AM52 °FPassing clouds.9 mph94%29.95 "HgN/A
5:20 AM50 °FPassing clouds.9 mph94%29.95 "HgN/A
4:50 AM50 °FPassing clouds.9 mph94%29.95 "HgN/A
4:20 AM50 °FPassing clouds.10 mph94%29.95 "HgN/A
3:50 AM50 °FPassing clouds.9 mph94%29.95 "HgN/A
Weather by CustomWeather, © 2016

See weather overviewHow to use our weather pages